Time,TemperatureF,DewpointF,PressureIn,WindDirection,WindDirectionDegrees,WindSpeedMPH,WindSpeedGustMPH,Humidity,HourlyPrecipIn,Conditions,Clouds,dailyrainin,SoftwareType,DateUTC
2013-05-10 00:01:00,55.4,52.2,29.92,NNE,22,0.0,0.0,89,0.00,RA,,0.00,WeatherDisplay:10.37,2013-05-10 04:01:00,
2013-05-10 00:02:00,55.4,52.2,29.92,NNE,22,0.0,0.0,89,0.00,RA,,0.00,WeatherDisplay:10.37,2013-05-10 04:02:00,
2013-05-10 00:05:00,55.4,52.2,29.92,NNE,22,0.0,0.0,89,0.00,RA,,0.00,WeatherDisplay:10.37,2013-05-10 04:05:00,
2013-05-10 00:08:00,55.4,52.2,29.92,NNE,22,0.0,0.0,89,0.00,RA,,0.00,WeatherDisplay:10.37,2013-05-10 04:08:00,
2013-05-10 00:13:00,55.0,51.9,29.92,SSE,158,0.0,0.0,89,0.00,OVC,,0.00,WeatherDisplay:10.37,2013-05-10 04:13:00,
2013-05-10 00:14:00,55.2,52.0,29.92,SSE,158,0.0,0.0,89,0.00,OVC,,0.00,WeatherDisplay:10.37,2013-05-10 04:14:00,
2013-05-10 00:19:00,55.2,52.0,29.93,SSE,158,0.0,0.0,89,0.00,OVC,,0.00,WeatherDisplay:10.37,2013-05-10 04:19:00,
2013-05-10 00:24:00,55.2,52.0,29.93,SSE,158,0.0,0.0,89,0.00,OVC,,0.00,WeatherDisplay:10.37,2013-05-10 04:24:00,
2013-05-10 00:29:00,54.9,51.7,29.93,SSE,158,0.0,0.0,89,0.00,OVC,,0.00,WeatherDisplay:10.37,2013-05-10 04:29:00,
2013-05-10 00:34:00,54.9,51.7,29.93,SSE,158,0.0,0.0,89,0.00,OVC,,0.00,WeatherDisplay:10.37,2013-05-10 04:34:00,
2013-05-10 00:39:00,54.7,51.5,29.92,SSE,158,0.0,0.0,89,0.00,OVC,,0.00,WeatherDisplay:10.37,2013-05-10 04:39:00,
2013-05-10 00:44:00,54.7,51.5,29.92,SSE,158,0.0,0.0,89,0.00,OVC,,0.00,WeatherDisplay:10.37,2013-05-10 04:44:00,
2013-05-10 00:49:00,54.5,51.3,29.92,SSE,158,0.0,0.0,89,0.00,OVC,,0.00,WeatherDisplay:10.37,2013-05-10 04:49:00,
2013-05-10 00:54:00,54.5,51.3,29.92,SSE,158,0.0,0.0,89,0.00,OVC,,0.00,WeatherDisplay:10.37,2013-05-10 04:54:00,
2013-05-10 00:59:00,54.5,51.3,29.92,SSE,158,0.0,0.0,89,0.00,OVC,,0.00,WeatherDisplay:10.37,2013-05-10 04:59:00,
2013-05-10 01:04:00,54.3,51.1,29.92,SSE,158,0.0,0.0,89,0.00,OVC,,0.00,WeatherDisplay:10.37,2013-05-10 05:04:00,
2013-05-10 01:09:00,54.3,51.1,29.92,SSE,158,0.0,0.0,89,0.00,OVC,,0.00,WeatherDisplay:10.37,2013-05-10 05:09:00,
2013-05-10 01:14:00,54.3,51.1,29.92,SSE,158,0.0,0.0,89,0.00,OVC,,0.00,WeatherDisplay:10.37,2013-05-10 05:14:00,
2013-05-10 01:19:00,54.3,51.1,29.92,SSE,158,0.0,0.0,89,0.00,OVC,,0.00,WeatherDisplay:10.37,2013-05-10 05:19:00,
2013-05-10 01:24:00,54.1,51.0,29.92,SSE,158,0.0,0.0,89,0.00,OVC,,0.00,WeatherDisplay:10.37,2013-05-10 05:24:00,
2013-05-10 01:29:00,54.1,51.0,29.92,SSE,158,0.0,0.0,89,0.00,OVC,,0.00,WeatherDisplay:10.37,2013-05-10 05:29:00,
2013-05-10 01:34:00,54.1,51.0,29.92,SSE,158,0.0,0.0,89,0.00,OVC,,0.00,WeatherDisplay:10.37,2013-05-10 05:34:00,
2013-05-10 01:39:00,54.1,51.0,29.92,SSE,158,0.0,0.0,89,0.00,OVC,,0.00,WeatherDisplay:10.37,2013-05-10 05:39:00,
2013-05-10 01:44:00,53.8,50.6,29.92,SSE,158,0.0,0.0,89,0.00,OVC,,0.00,WeatherDisplay:10.37,2013-05-10 05:44:00,
2013-05-10 01:49:00,53.6,50.4,29.92,SSE,158,0.0,0.0,89,0.00,OVC,,0.00,WeatherDisplay:10.37,2013-05-10 05:49:00,
2013-05-10 01:54:00,53.6,50.4,29.92,SSE,158,0.0,0.0,89,0.00,OVC,,0.00,WeatherDisplay:10.37,2013-05-10 05:54:00,
2013-05-10 01:59:00,53.4,50.3,29.92,SSE,158,0.0,0.0,89,0.00,OVC,,0.00,WeatherDisplay:10.37,2013-05-10 05:59:00,
2013-05-10 02:04:00,53.2,50.1,29.92,SSE,158,0.0,0.0,89,0.00,OVC,,0.00,WeatherDisplay:10.37,2013-05-10 06:04:00,
2013-05-10 02:09:00,53.2,50.1,29.92,SSE,158,0.0,0.0,89,0.00,OVC,,0.00,WeatherDisplay:10.37,2013-05-10 06:09:00,
2013-05-10 02:14:00,52.9,49.7,29.92,SSE,158,0.0,0.0,89,0.00,OVC,,0.00,WeatherDisplay:10.37,2013-05-10 06:14:00,
2013-05-10 02:19:00,52.9,49.7,29.92,SSE,158,0.0,0.0,89,0.00,OVC,,0.00,WeatherDisplay:10.37,2013-05-10 06:19:00,
2013-05-10 02:24:00,52.7,49.5,29.92,SSE,158,0.0,0.0,89,0.00,OVC,,0.00,WeatherDisplay:10.37,2013-05-10 06:24:00,
2013-05-10 02:29:00,52.5,49.4,29.92,SSE,158,0.0,0.0,89,0.00,OVC,,0.00,WeatherDisplay:10.37,2013-05-10 06:29:00,
2013-05-10 02:34:00,52.3,49.2,29.92,SSE,158,0.0,0.0,89,0.00,OVC,,0.00,WeatherDisplay:10.37,2013-05-10 06:34:00,
2013-05-10 02:39:00,52.2,49.0,29.92,SSE,158,0.0,0.0,89,0.00,OVC,,0.00,WeatherDisplay:10.37,2013-05-10 06:39:00,
2013-05-10 02:44:00,52.0,48.8,29.92,SSE,158,0.0,0.0,89,0.00,OVC,,0.00,WeatherDisplay:10.37,2013-05-10 06:44:00,
2013-05-10 02:49:00,52.0,48.8,29.92,SSE,158,0.0,0.0,89,0.00,OVC,,0.00,WeatherDisplay:10.37,2013-05-10 06:49:00,
2013-05-10 02:54:00,51.8,48.7,29.92,SSE,158,0.0,0.0,89,0.00,OVC,,0.00,WeatherDisplay:10.37,2013-05-10 06:54:00,
2013-05-10 02:59:00,52.0,48.8,29.91,SSE,158,0.0,0.0,89,0.00,OVC,,0.00,WeatherDisplay:10.37,2013-05-10 06:59:00,
2013-05-10 03:04:00,52.0,48.8,29.91,SSE,158,0.0,0.0,89,0.00,CLR,,0.00,WeatherDisplay:10.37,2013-05-10 07:04:00,
2013-05-10 03:09:00,52.0,48.8,29.91,SSE,158,0.0,0.0,89,0.00,CLR,,0.00,WeatherDisplay:10.37,2013-05-10 07:09:00,
2013-05-10 03:14:00,51.6,48.5,29.91,SSE,158,0.0,0.0,89,0.00,CLR,,0.00,WeatherDisplay:10.37,2013-05-10 07:14:00,
2013-05-10 03:19:00,51.4,48.3,29.92,SSE,158,0.0,0.0,89,0.00,CLR,,0.00,WeatherDisplay:10.37,2013-05-10 07:19:00,
2013-05-10 03:24:00,51.6,48.5,29.92,ESE,112,0.1,0.0,89,0.00,CLR,,0.00,WeatherDisplay:10.37,2013-05-10 07:24:00,
2013-05-10 03:29:00,51.6,48.5,29.92,ESE,112,0.1,0.0,89,0.00,CLR,,0.00,WeatherDisplay:10.37,2013-05-10 07:29:00,
2013-05-10 03:34:00,51.6,48.5,29.92,NNE,22,0.1,0.0,89,0.00,CLR,,0.00,WeatherDisplay:10.37,2013-05-10 07:34:00,
2013-05-10 03:39:00,51.6,48.5,29.92,ENE,68,0.1,0.0,89,0.00,CLR,,0.00,WeatherDisplay:10.37,2013-05-10 07:39:00,
2013-05-10 03:44:00,52.0,48.8,29.92,East,90,0.0,0.0,89,0.00,CLR,,0.00,WeatherDisplay:10.37,2013-05-10 07:44:00,
2013-05-10 03:49:00,52.0,48.8,29.92,East,90,0.0,0.0,89,0.00,CLR,,0.00,WeatherDisplay:10.37,2013-05-10 07:49:00,
2013-05-10 03:54:00,52.0,48.8,29.92,South,180,0.0,0.0,89,0.00,CLR,,0.00,WeatherDisplay:10.37,2013-05-10 07:54:00,
2013-05-10 03:59:00,52.2,49.0,29.92,North,0,0.2,0.0,89,0.00,CLR,,0.00,WeatherDisplay:10.37,2013-05-10 07:59:00,
2013-05-10 04:04:00,52.3,49.2,29.92,North,0,0.2,0.0,89,0.00,CLR,,0.00,WeatherDisplay:10.37,2013-05-10 08:04:00,
2013-05-10 04:09:00,52.5,49.4,29.92,NE,45,0.1,0.0,89,0.00,CLR,,0.00,WeatherDisplay:10.37,2013-05-10 08:09:00,
2013-05-10 04:14:00,52.5,49.4,29.92,NE,45,0.3,0.0,89,0.00,CLR,,0.00,WeatherDisplay:10.37,2013-05-10 08:14:00,
2013-05-10 04:19:00,52.7,49.5,29.92,NE,45,0.6,2.3,89,0.00,CLR,,0.00,WeatherDisplay:10.37,2013-05-10 08:19:00,
2013-05-10 04:24:00,52.7,49.5,29.92,East,90,0.3,0.0,89,0.00,CLR,,0.00,WeatherDisplay:10.37,2013-05-10 08:24:00,
2013-05-10 04:29:00,52.7,49.5,29.92,NE,45,0.1,2.3,89,0.00,CLR,,0.00,WeatherDisplay:10.37,2013-05-10 08:29:00,
2013-05-10 04:34:00,52.5,49.4,29.92,NE,45,0.3,0.0,89,0.00,CLR,,0.00,WeatherDisplay:10.37,2013-05-10 08:34:00,
2013-05-10 04:39:00,52.7,49.5,29.92,East,90,0.3,0.0,89,0.00,CLR,,0.00,WeatherDisplay:10.37,2013-05-10 08:39:00,
2013-05-10 04:44:00,52.7,49.5,29.92,SE,135,0.3,1.1,89,0.00,CLR,,0.00,WeatherDisplay:10.37,2013-05-10 08:44:00,
2013-05-10 04:49:00,52.7,49.5,29.92,NE,45,0.5,1.1,89,0.00,CLR,,0.00,WeatherDisplay:10.37,2013-05-10 08:49:00,
2013-05-10 04:54:00,52.7,49.5,29.92,NNE,22,0.5,2.3,89,0.00,CLR,,0.00,WeatherDisplay:10.37,2013-05-10 08:54:00,
2013-05-10 04:59:00,52.5,49.4,29.92,East,90,0.2,0.0,89,0.00,CLR,,0.00,WeatherDisplay:10.37,2013-05-10 08:59:00,
2013-05-10 05:04:00,52.7,49.5,29.92,ENE,68,0.1,0.0,89,0.00,CLR,,0.00,WeatherDisplay:10.37,2013-05-10 09:04:00,
2013-05-10 05:09:00,52.5,49.4,29.92,NNE,22,0.2,1.1,89,0.00,CLR,,0.00,WeatherDisplay:10.37,2013-05-10 09:09:00,
2013-05-10 05:14:00,52.7,49.5,29.92,ENE,68,0.8,2.3,89,0.00,CLR,,0.00,WeatherDisplay:10.37,2013-05-10 09:14:00,
2013-05-10 05:19:00,52.7,49.5,29.93,East,90,1.0,2.3,89,0.00,CLR,,0.00,WeatherDisplay:10.37,2013-05-10 09:19:00,
2013-05-10 05:24:00,52.7,49.5,29.93,SSE,158,0.7,2.3,89,0.00,CLR,,0.00,WeatherDisplay:10.37,2013-05-10 09:24:00,
2013-05-10 05:29:00,52.5,49.4,29.93,SE,135,0.3,1.1,89,0.00,CLR,,0.00,WeatherDisplay:10.37,2013-05-10 09:29:00,
2013-05-10 05:34:00,52.5,49.4,29.93,North,0,0.3,2.3,89,0.00,CLR,,0.00,WeatherDisplay:10.37,2013-05-10 09:34:00,
2013-05-10 05:39:00,52.3,49.2,29.93,SE,135,0.3,0.0,89,0.00,CLR,,0.00,WeatherDisplay:10.37,2013-05-10 09:39:00,
2013-05-10 05:44:00,52.2,49.0,29.93,NNW,338,0.3,1.1,89,0.00,CLR,,0.00,WeatherDisplay:10.37,2013-05-10 09:44:00,
2013-05-10 05:49:00,52.2,49.0,29.93,East,90,0.2,0.0,89,0.00,CLR,,0.00,WeatherDisplay:10.37,2013-05-10 09:49:00,
2013-05-10 05:54:00,52.2,49.0,29.93,ESE,112,0.1,1.1,89,0.00,CLR,,0.00,WeatherDisplay:10.37,2013-05-10 09:54:00,
2013-05-10 05:59:00,52.2,49.0,29.93,SW,225,0.2,0.0,89,0.00,CLR,,0.00,WeatherDisplay:10.37,2013-05-10 09:59:00,
2013-05-10 06:04:00,52.0,48.8,29.93,North,0,0.2,0.0,89,0.00,CLR,,0.00,WeatherDisplay:10.37,2013-05-10 10:04:00,
2013-05-10 06:09:00,52.0,48.8,29.93,North,0,0.2,0.0,89,0.00,CLR,,0.00,WeatherDisplay:10.37,2013-05-10 10:09:00,
2013-05-10 06:14:00,52.2,49.0,29.93,East,90,0.2,0.0,89,0.00,CLR,,0.00,WeatherDisplay:10.37,2013-05-10 10:14:00,
2013-05-10 06:19:00,52.2,49.0,29.94,ENE,68,0.2,1.1,89,0.00,CLR,,0.00,WeatherDisplay:10.37,2013-05-10 10:19:00,
2013-05-10 06:24:00,52.0,48.8,29.94,NE,45,0.1,0.0,89,0.00,CLR,,0.00,WeatherDisplay:10.37,2013-05-10 10:24:00,
2013-05-10 06:29:00,52.2,49.0,29.94,NNE,22,0.2,2.3,89,0.00,CLR,,0.00,WeatherDisplay:10.37,2013-05-10 10:29:00,
2013-05-10 06:34:00,52.3,49.2,29.94,SE,135,0.3,1.1,89,0.00,CLR,,0.00,WeatherDisplay:10.37,2013-05-10 10:34:00,
2013-05-10 06:39:00,52.5,49.4,29.94,NNE,22,0.5,0.0,89,0.00,CLR,,0.00,WeatherDisplay:10.37,2013-05-10 10:39:00,
2013-05-10 06:44:00,52.7,49.5,29.94,NNE,22,0.6,2.3,89,0.00,CLR,,0.00,WeatherDisplay:10.37,2013-05-10 10:44:00,
2013-05-10 06:49:00,52.9,49.7,29.94,NNW,338,0.5,2.3,89,0.00,CLR,,0.00,WeatherDisplay:10.37,2013-05-10 10:49:00,
2013-05-10 06:54:00,53.4,50.6,29.94,NW,315,0.3,1.1,90,0.00,CLR,,0.00,WeatherDisplay:10.37,2013-05-10 10:54:00,
2013-05-10 06:59:00,53.6,50.4,29.94,NW,315,0.3,0.0,89,0.00,CLR,,0.00,WeatherDisplay:10.37,2013-05-10 10:59:00,
2013-05-10 07:04:00,54.1,51.0,29.94,WNW,292,0.5,2.3,89,0.00,SCT,,0.00,WeatherDisplay:10.37,2013-05-10 11:04:00,
2013-05-10 07:09:00,54.1,51.0,29.94,ESE,112,0.5,0.0,89,0.00,SCT,,0.00,WeatherDisplay:10.37,2013-05-10 11:09:00,
2013-05-10 07:14:00,54.3,51.1,29.94,NNE,22,0.2,1.1,89,0.00,SCT,,0.00,WeatherDisplay:10.37,2013-05-10 11:14:00,
2013-05-10 07:19:00,54.7,51.5,29.95,ESE,112,0.6,2.3,89,0.00,SCT,,0.00,WeatherDisplay:10.37,2013-05-10 11:19:00,
2013-05-10 07:24:00,54.9,51.7,29.95,SE,135,0.7,2.3,89,0.00,SCT,,0.00,WeatherDisplay:10.37,2013-05-10 11:24:00,
2013-05-10 07:29:00,55.0,51.9,29.95,NW,315,0.3,0.0,89,0.00,SCT,,0.00,WeatherDisplay:10.37,2013-05-10 11:29:00,
2013-05-10 07:34:00,55.4,52.2,29.95,WNW,292,0.1,0.0,89,0.00,SCT,,0.00,WeatherDisplay:10.37,2013-05-10 11:34:00,
2013-05-10 07:39:00,55.4,52.2,29.97,South,180,0.6,5.8,89,0.00,SCT,,0.00,WeatherDisplay:10.37,2013-05-10 11:39:00,
2013-05-10 07:44:00,55.9,52.7,29.97,NNE,22,1.3,5.8,89,0.00,SCT,,0.00,WeatherDisplay:10.37,2013-05-10 11:44:00,
2013-05-10 07:49:00,55.9,52.4,29.97,NW,315,1.7,4.6,88,0.00,SCT,,0.00,WeatherDisplay:10.37,2013-05-10 11:49:00,
2013-05-10 07:54:00,56.3,53.1,29.97,SE,135,1.7,2.3,89,0.00,SCT,,0.00,WeatherDisplay:10.37,2013-05-10 11:54:00,
2013-05-10 07:59:00,56.7,53.5,29.98,ESE,112,1.1,2.3,89,0.00,SCT,,0.00,WeatherDisplay:10.37,2013-05-10 11:59:00,
2013-05-10 08:04:00,57.0,53.8,29.98,East,90,0.9,2.3,89,0.00,CLR,,0.00,WeatherDisplay:10.37,2013-05-10 12:04:00,
2013-05-10 08:09:00,57.7,54.5,29.98,ENE,68,1.1,4.6,89,0.00,CLR,,0.00,WeatherDisplay:10.37,2013-05-10 12:09:00,
2013-05-10 08:14:00,59.5,56.0,29.98,North,0,1.0,0.0,88,0.00,CLR,,0.00,WeatherDisplay:10.37,2013-05-10 12:14:00,
2013-05-10 08:19:00,60.3,56.7,29.99,South,180,1.1,1.1,88,0.00,CLR,,0.00,WeatherDisplay:10.37,2013-05-10 12:19:00,
2013-05-10 08:24:00,61.2,57.3,29.99,SSE,158,1.4,2.3,87,0.00,CLR,,0.00,WeatherDisplay:10.37,2013-05-10 12:24:00,
2013-05-10 08:29:00,61.7,57.8,29.99,North,0,1.1,1.1,87,0.00,CLR,,0.00,WeatherDisplay:10.37,2013-05-10 12:29:00,
2013-05-10 08:34:00,63.0,59.0,29.99,WSW,248,0.7,0.0,87,0.00,CLR,,0.00,WeatherDisplay:10.37,2013-05-10 12:34:00,
2013-05-10 08:39:00,63.5,59.6,30.00,NW,315,0.6,1.1,87,0.00,CLR,,0.00,WeatherDisplay:10.37,2013-05-10 12:39:00,
2013-05-10 08:44:00,63.9,59.6,30.00,WNW,292,0.9,3.5,86,0.00,CLR,,0.00,WeatherDisplay:10.37,2013-05-10 12:44:00,
2013-05-10 08:49:00,63.9,59.6,30.00,SSE,158,0.8,1.1,86,0.00,CLR,,0.00,WeatherDisplay:10.37,2013-05-10 12:49:00,
2013-05-10 08:54:00,62.8,57.9,30.00,WNW,292,0.9,2.3,84,0.00,CLR,,0.00,WeatherDisplay:10.37,2013-05-10 12:54:00,
2013-05-10 08:59:00,62.2,57.0,30.02,NNE,22,1.6,4.6,83,0.00,CLR,,0.00,WeatherDisplay:10.37,2013-05-10 12:59:00,
2013-05-10 09:04:00,62.2,57.7,30.02,SW,225,1.5,1.5,85,0.00,CLR,,0.00,WeatherDisplay:10.37,2013-05-10 13:04:00,
2013-05-10 09:09:00,62.4,57.8,30.02,NW,315,1.3,2.3,85,0.00,CLR,,0.00,WeatherDisplay:10.37,2013-05-10 13:09:00,
2013-05-10 09:14:00,62.8,58.2,30.02,ESE,112,0.6,2.6,85,0.00,CLR,,0.00,WeatherDisplay:10.37,2013-05-10 13:14:00,
2013-05-10 09:19:00,62.8,58.5,30.03,WSW,248,0.8,0.0,86,0.00,CLR,,0.00,WeatherDisplay:10.37,2013-05-10 13:19:00,
2013-05-10 09:24:00,62.6,58.0,30.03,NNW,338,1.1,2.3,85,0.00,CLR,,0.00,WeatherDisplay:10.37,2013-05-10 13:24:00,
2013-05-10 09:29:00,62.8,57.9,30.03,SE,135,0.8,0.0,84,0.00,CLR,,0.00,WeatherDisplay:10.37,2013-05-10 13:29:00,
2013-05-10 09:34:00,63.1,58.6,30.03,SE,135,1.0,2.3,85,0.00,CLR,,0.00,WeatherDisplay:10.37,2013-05-10 13:34:00,
2013-05-10 09:39:00,63.5,58.9,30.02,SW,225,1.1,1.1,85,0.00,CLR,,0.00,WeatherDisplay:10.37,2013-05-10 13:39:00,
2013-05-10 09:44:00,63.0,58.0,30.02,NNE,22,0.9,1.1,84,0.00,CLR,,0.00,WeatherDisplay:10.37,2013-05-10 13:44:00,
2013-05-10 09:49:00,63.0,58.0,30.02,NNW,338,0.7,0.0,84,0.00,CLR,,0.00,WeatherDisplay:10.37,2013-05-10 13:49:00,
2013-05-10 09:54:00,63.3,58.4,30.02,ESE,112,0.6,2.3,84,0.00,CLR,,0.00,WeatherDisplay:10.37,2013-05-10 13:54:00,
2013-05-10 09:59:00,63.7,58.8,30.03,SE,135,0.8,0.0,84,0.00,CLR,,0.00,WeatherDisplay:10.37,2013-05-10 13:59:00,
2013-05-10 10:04:00,64.4,59.5,30.03,SE,135,1.4,2.3,84,0.00,CLR,,0.00,WeatherDisplay:10.37,2013-05-10 14:04:00,
2013-05-10 10:09:00,64.6,59.3,30.03,South,180,1.6,1.6,83,0.00,CLR,,0.00,WeatherDisplay:10.37,2013-05-10 14:09:00,
2013-05-10 10:14:00,64.9,60.0,30.03,ENE,68,1.1,4.6,84,0.00,CLR,,0.00,WeatherDisplay:10.37,2013-05-10 14:14:00,
2013-05-10 10:19:00,64.9,59.3,30.04,WNW,292,1.3,3.5,82,0.00,CLR,,0.00,WeatherDisplay:10.37,2013-05-10 14:19:00,
2013-05-10 10:24:00,64.9,59.7,30.04,South,180,1.5,0.0,83,0.00,CLR,,0.00,WeatherDisplay:10.37,2013-05-10 14:24:00,
2013-05-10 10:29:00,65.1,59.8,30.04,SE,135,1.0,2.3,83,0.00,CLR,,0.00,WeatherDisplay:10.37,2013-05-10 14:29:00,
2013-05-10 10:34:00,65.7,60.4,30.04,NNW,338,0.6,0.0,83,0.00,CLR,,0.00,WeatherDisplay:10.37,2013-05-10 14:34:00,
2013-05-10 10:39:00,65.7,60.0,30.04,NNW,338,0.6,1.1,82,0.00,CLR,,0.00,WeatherDisplay:10.37,2013-05-10 14:39:00,
2013-05-10 10:44:00,66.0,60.4,30.04,SW,225,0.3,0.0,82,0.00,CLR,,0.00,WeatherDisplay:10.37,2013-05-10 14:44:00,
2013-05-10 10:49:00,66.7,61.1,30.04,SE,135,0.8,2.3,82,0.00,CLR,,0.00,WeatherDisplay:10.37,2013-05-10 14:49:00,
2013-05-10 10:54:00,66.7,60.4,30.04,East,90,1.4,3.5,80,0.00,CLR,,0.00,WeatherDisplay:10.37,2013-05-10 14:54:00,
2013-05-10 10:59:00,67.1,61.1,30.04,ENE,68,1.7,2.3,81,0.00,CLR,,0.00,WeatherDisplay:10.37,2013-05-10 14:59:00,
2013-05-10 11:04:00,67.3,61.2,30.04,WNW,292,1.3,2.3,81,0.00,CLR,,0.00,WeatherDisplay:10.37,2013-05-10 15:04:00,
2013-05-10 11:09:00,67.6,61.6,30.04,West,270,0.9,1.1,81,0.00,CLR,,0.00,WeatherDisplay:10.37,2013-05-10 15:09:00,
2013-05-10 11:14:00,67.8,60.0,30.04,NW,315,1.4,3.5,76,0.00,CLR,,0.00,WeatherDisplay:10.37,2013-05-10 15:14:00,
2013-05-10 11:19:00,68.2,61.1,30.04,SSE,158,1.1,2.3,78,0.00,CLR,,0.00,WeatherDisplay:10.37,2013-05-10 15:19:00,
2013-05-10 11:24:00,68.0,60.9,30.04,ENE,68,0.5,1.1,78,0.00,CLR,,0.00,WeatherDisplay:10.37,2013-05-10 15:24:00,
2013-05-10 11:29:00,68.4,61.6,30.04,NW,315,0.7,2.3,79,0.00,CLR,,0.00,WeatherDisplay:10.37,2013-05-10 15:29:00,
2013-05-10 11:34:00,68.7,60.8,30.04,West,270,1.1,1.1,76,0.00,CLR,,0.00,WeatherDisplay:10.37,2013-05-10 15:34:00,
2013-05-10 11:39:00,69.3,61.0,30.04,North,0,1.1,2.3,75,0.00,CLR,,0.00,WeatherDisplay:10.37,2013-05-10 15:39:00,
2013-05-10 11:44:00,69.4,61.2,30.04,SW,225,1.0,3.5,75,0.00,CLR,,0.00,WeatherDisplay:10.37,2013-05-10 15:44:00,
2013-05-10 11:49:00,69.4,60.8,30.04,East,90,1.0,0.0,74,0.00,CLR,,0.00,WeatherDisplay:10.37,2013-05-10 15:49:00,
2013-05-10 11:54:00,70.0,60.9,30.04,SSE,158,0.9,2.3,73,0.00,CLR,,0.00,WeatherDisplay:10.37,2013-05-10 15:54:00,
2013-05-10 11:59:00,70.0,60.1,30.04,West,270,1.1,2.3,71,0.00,CLR,,0.00,WeatherDisplay:10.37,2013-05-10 15:59:00,
2013-05-10 12:04:00,70.2,60.3,30.04,NNW,338,1.4,1.4,71,0.00,FEW,,0.00,WeatherDisplay:10.37,2013-05-10 16:04:00,
2013-05-10 12:09:00,70.2,60.3,30.04,NNW,338,1.4,1.4,71,0.00,FEW,,0.00,WeatherDisplay:10.37,2013-05-10 16:09:00,
2013-05-10 12:14:00,71.4,60.3,30.04,WNW,292,1.5,2.3,68,0.00,FEW,,0.00,WeatherDisplay:10.37,2013-05-10 16:14:00,
2013-05-10 12:19:00,71.6,60.9,30.03,WNW,292,1.0,2.3,69,0.00,FEW,,0.00,WeatherDisplay:10.37,2013-05-10 16:19:00,
2013-05-10 12:24:00,72.1,60.2,30.03,SW,225,1.1,3.5,66,0.00,FEW,,0.00,WeatherDisplay:10.37,2013-05-10 16:24:00,
2013-05-10 12:29:00,72.1,59.7,30.03,WSW,248,1.5,2.3,65,0.00,FEW,,0.00,WeatherDisplay:10.37,2013-05-10 16:29:00,
2013-05-10 12:34:00,72.9,60.0,30.03,ESE,112,1.8,3.5,64,0.00,FEW,,0.00,WeatherDisplay:10.37,2013-05-10 16:34:00,
2013-05-10 12:39:00,73.0,59.2,30.03,ESE,112,2.1,4.6,62,0.00,FEW,,0.00,WeatherDisplay:10.37,2013-05-10 16:39:00,
2013-05-10 12:44:00,73.6,61.1,30.03,NW,315,2.2,3.5,65,0.00,FEW,,0.00,WeatherDisplay:10.37,2013-05-10 16:44:00,
2013-05-10 12:49:00,73.4,60.9,30.03,ENE,68,1.7,1.7,65,0.00,FEW,,0.00,WeatherDisplay:10.37,2013-05-10 16:49:00,
2013-05-10 12:54:00,73.9,59.2,30.03,East,90,1.3,4.6,60,0.00,FEW,,0.00,WeatherDisplay:10.37,2013-05-10 16:54:00,
2013-05-10 12:59:00,74.5,59.2,30.02,NW,315,1.1,0.0,59,0.00,FEW,,0.00,WeatherDisplay:10.37,2013-05-10 16:59:00,
2013-05-10 13:04:00,78.3,61.3,30.02,SE,135,1.3,4.6,56,0.00,BKN,,0.00,WeatherDisplay:10.37,2013-05-10 17:04:00,
2013-05-10 13:09:00,80.8,63.1,30.02,NW,315,1.1,1.1,55,0.00,BKN,,0.00,WeatherDisplay:10.37,2013-05-10 17:09:00,
2013-05-10 13:14:00,82.4,63.5,30.02,SSE,158,1.6,3.5,53,0.00,BKN,,0.00,WeatherDisplay:10.37,2013-05-10 17:14:00,
2013-05-10 13:19:00,80.6,60.2,30.02,ESE,112,1.4,1.4,50,0.00,BKN,,0.00,WeatherDisplay:10.37,2013-05-10 17:19:00,
2013-05-10 13:24:00,79.0,58.8,30.02,NW,315,1.1,2.3,50,0.00,BKN,,0.00,WeatherDisplay:10.37,2013-05-10 17:24:00,
2013-05-10 13:29:00,78.3,58.1,30.02,ESE,112,1.4,3.5,50,0.00,BKN,,0.00,WeatherDisplay:10.37,2013-05-10 17:29:00,
2013-05-10 13:34:00,78.6,57.9,30.02,South,180,1.6,4.6,49,0.00,BKN,,0.00,WeatherDisplay:10.37,2013-05-10 17:34:00,
2013-05-10 13:39:00,78.6,58.4,30.01,NW,315,1.5,3.5,50,0.00,BKN,,0.00,WeatherDisplay:10.37,2013-05-10 17:39:00,
2013-05-10 13:44:00,78.4,56.5,30.01,WNW,292,1.7,3.5,47,0.00,BKN,,0.00,WeatherDisplay:10.37,2013-05-10 17:44:00,
2013-05-10 13:49:00,78.4,58.3,30.01,NNE,22,2.1,2.3,50,0.00,BKN,,0.00,WeatherDisplay:10.37,2013-05-10 17:49:00,
2013-05-10 13:54:00,78.6,57.9,30.01,North,0,2.0,0.0,49,0.00,BKN,,0.00,WeatherDisplay:10.37,2013-05-10 17:54:00,
2013-05-10 13:59:00,77.9,58.9,30.02,SW,225,1.7,1.7,52,0.00,BKN,,0.00,WeatherDisplay:10.37,2013-05-10 17:59:00,
2013-05-10 14:04:00,77.0,57.5,30.02,NW,315,1.1,2.3,51,0.00,BKN,,0.00,WeatherDisplay:10.37,2013-05-10 18:04:00,
2013-05-10 14:09:00,77.2,58.2,30.02,SE,135,1.1,1.1,52,0.00,BKN,,0.00,WeatherDisplay:10.37,2013-05-10 18:09:00,
2013-05-10 14:14:00,78.4,59.9,30.02,WNW,292,1.1,1.1,53,0.00,BKN,,0.00,WeatherDisplay:10.37,2013-05-10 18:14:00,
2013-05-10 14:19:00,78.8,59.7,30.01,West,270,1.4,3.5,52,0.00,BKN,,0.00,WeatherDisplay:10.37,2013-05-10 18:19:00,
2013-05-10 14:24:00,77.7,59.2,30.01,WSW,248,2.0,2.3,53,0.00,BKN,,0.00,WeatherDisplay:10.37,2013-05-10 18:24:00,
2013-05-10 14:29:00,77.2,59.2,30.01,SSE,158,1.5,0.0,54,0.00,BKN,,0.00,WeatherDisplay:10.37,2013-05-10 18:29:00,
2013-05-10 14:34:00,76.5,58.6,30.01,NW,315,0.5,2.3,54,0.00,BKN,,0.00,WeatherDisplay:10.37,2013-05-10 18:34:00,
2013-05-10 14:39:00,76.5,58.1,30.01,WNW,292,0.3,0.0,53,0.00,BKN,,0.00,WeatherDisplay:10.37,2013-05-10 18:39:00,
2013-05-10 14:44:00,77.9,59.4,30.01,NW,315,0.3,0.0,53,0.00,BKN,,0.00,WeatherDisplay:10.37,2013-05-10 18:44:00,
2013-05-10 14:49:00,78.3,57.5,30.01,WNW,292,0.8,2.3,49,0.00,BKN,,0.00,WeatherDisplay:10.37,2013-05-10 18:49:00,
2013-05-10 14:54:00,78.6,57.9,30.01,SSW,202,2.0,3.5,49,0.00,BKN,,0.00,WeatherDisplay:10.37,2013-05-10 18:54:00,
2013-05-10 14:59:00,78.6,58.4,30.01,SSE,158,2.0,4.6,50,0.00,BKN,,0.00,WeatherDisplay:10.37,2013-05-10 18:59:00,
2013-05-10 15:04:00,78.8,58.6,30.01,NW,315,2.0,3.5,50,0.00,SCT,,0.00,WeatherDisplay:10.37,2013-05-10 19:04:00,
2013-05-10 15:09:00,78.6,59.0,30.01,West,270,2.2,4.6,51,0.00,SCT,,0.00,WeatherDisplay:10.37,2013-05-10 19:09:00,
2013-05-10 15:14:00,78.3,58.1,30.01,NE,45,2.1,2.3,50,0.00,SCT,,0.00,WeatherDisplay:10.37,2013-05-10 19:14:00,
2013-05-10 15:19:00,77.9,57.2,30.02,NNW,338,2.0,2.3,49,0.00,SCT,,0.00,WeatherDisplay:10.37,2013-05-10 19:19:00,
2013-05-10 15:24:00,76.8,57.3,30.02,NE,45,1.7,2.3,51,0.00,SCT,,0.00,WeatherDisplay:10.37,2013-05-10 19:24:00,
2013-05-10 15:29:00,77.4,58.4,30.02,West,270,1.8,3.5,52,0.00,SCT,,0.00,WeatherDisplay:10.37,2013-05-10 19:29:00,
2013-05-10 15:34:00,78.3,57.0,30.02,SSE,158,1.8,3.5,48,0.00,SCT,,0.00,WeatherDisplay:10.37,2013-05-10 19:34:00,
2013-05-10 15:39:00,78.8,57.4,30.01,ENE,68,2.0,2.3,48,0.00,SCT,,0.00,WeatherDisplay:10.37,2013-05-10 19:39:00,
2013-05-10 15:44:00,79.3,57.9,30.01,NNE,22,1.8,3.5,48,0.00,SCT,,0.00,WeatherDisplay:10.37,2013-05-10 19:44:00,
2013-05-10 15:49:00,78.6,56.7,30.01,West,270,2.1,2.3,47,0.00,SCT,,0.00,WeatherDisplay:10.37,2013-05-10 19:49:00,
2013-05-10 15:54:00,77.5,57.4,30.01,NE,45,1.5,1.5,50,0.00,SCT,,0.00,WeatherDisplay:10.37,2013-05-10 19:54:00,
2013-05-10 15:59:00,76.8,55.1,30.01,SE,135,1.6,2.3,47,0.00,SCT,,0.00,WeatherDisplay:10.37,2013-05-10 19:59:00,
2013-05-10 16:04:00,77.5,57.4,30.01,NW,315,1.6,3.5,50,0.00,CLR,,0.00,WeatherDisplay:10.37,2013-05-10 20:04:00,
2013-05-10 16:09:00,78.1,55.6,30.01,NNW,338,1.5,4.6,46,0.00,CLR,,0.00,WeatherDisplay:10.37,2013-05-10 20:09:00,
2013-05-10 16:14:00,78.1,54.4,30.01,WSW,248,2.0,4.6,44,0.00,CLR,,0.00,WeatherDisplay:10.37,2013-05-10 20:14:00,
2013-05-10 16:19:00,77.5,56.3,30.01,West,270,1.5,0.0,48,0.00,CLR,,0.00,WeatherDisplay:10.37,2013-05-10 20:19:00,
2013-05-10 16:24:00,77.2,56.5,30.01,NW,315,1.0,1.4,49,0.00,CLR,,0.00,WeatherDisplay:10.37,2013-05-10 20:24:00,
2013-05-10 16:29:00,77.2,55.4,30.01,West,270,1.1,2.3,47,0.00,CLR,,0.00,WeatherDisplay:10.37,2013-05-10 20:29:00,
2013-05-10 16:34:00,77.4,55.0,30.01,West,270,1.3,1.3,46,0.00,CLR,,0.00,WeatherDisplay:10.37,2013-05-10 20:34:00,
2013-05-10 16:39:00,77.2,54.2,30.01,WNW,292,1.1,2.3,45,0.00,CLR,,0.00,WeatherDisplay:10.37,2013-05-10 20:39:00,
2013-05-10 16:44:00,76.8,54.5,30.01,South,180,0.8,1.1,46,0.00,CLR,,0.00,WeatherDisplay:10.37,2013-05-10 20:44:00,
2013-05-10 16:49:00,76.6,53.7,30.01,NNE,22,1.0,3.5,45,0.00,CLR,,0.00,WeatherDisplay:10.37,2013-05-10 20:49:00,
2013-05-10 16:54:00,76.6,53.7,30.01,WNW,292,2.0,2.4,45,0.00,CLR,,0.00,WeatherDisplay:10.37,2013-05-10 20:54:00,
2013-05-10 16:59:00,76.3,55.1,30.00,NW,315,2.2,2.2,48,0.00,CLR,,0.00,WeatherDisplay:10.37,2013-05-10 20:59:00,
2013-05-10 17:04:00,76.1,54.4,30.00,NNE,22,1.1,0.0,47,0.00,CLR,,0.00,WeatherDisplay:10.37,2013-05-10 21:04:00,
2013-05-10 17:09:00,76.1,55.5,30.00,NE,45,0.5,0.0,49,0.00,CLR,,0.00,WeatherDisplay:10.37,2013-05-10 21:09:00,
2013-05-10 17:14:00,76.5,56.4,30.00,WSW,248,0.8,2.3,50,0.00,CLR,,0.00,WeatherDisplay:10.37,2013-05-10 21:14:00,
2013-05-10 17:19:00,76.3,55.1,30.01,West,270,0.9,2.3,48,0.00,CLR,,0.00,WeatherDisplay:10.37,2013-05-10 21:19:00,
2013-05-10 17:24:00,75.9,54.8,30.01,NNW,338,0.9,2.3,48,0.00,CLR,,0.00,WeatherDisplay:10.37,2013-05-10 21:24:00,
2013-05-10 17:29:00,75.9,55.4,30.01,NE,45,0.7,0.0,49,0.00,CLR,,0.00,WeatherDisplay:10.37,2013-05-10 21:29:00,
2013-05-10 17:34:00,76.1,55.0,30.01,West,270,0.9,2.3,48,0.00,CLR,,0.00,WeatherDisplay:10.37,2013-05-10 21:34:00,
2013-05-10 17:39:00,75.9,55.4,30.00,NNE,22,1.1,3.5,49,0.00,CLR,,0.00,WeatherDisplay:10.37,2013-05-10 21:39:00,
2013-05-10 17:44:00,75.9,54.8,30.00,NNE,22,1.7,2.3,48,0.00,CLR,,0.00,WeatherDisplay:10.37,2013-05-10 21:44:00,
2013-05-10 17:49:00,75.9,55.4,30.00,WNW,292,1.3,1.6,49,0.00,CLR,,0.00,WeatherDisplay:10.37,2013-05-10 21:49:00,
2013-05-10 17:54:00,76.1,55.5,30.00,West,270,0.9,1.1,49,0.00,CLR,,0.00,WeatherDisplay:10.37,2013-05-10 21:54:00,
2013-05-10 17:58:00,76.3,56.8,30.00,WNW,292,1.1,1.1,51,0.00,CLR,,0.00,WeatherDisplay:10.37,2013-05-10 21:58:00,
2013-05-10 17:59:00,76.3,56.8,30.00,WNW,292,1.1,1.1,51,0.00,CLR,,0.00,WeatherDisplay:10.37,2013-05-10 21:59:00,
2013-05-10 18:01:00,76.3,56.8,30.00,NW,315,1.1,0.0,51,0.00,CLR,,0.00,WeatherDisplay:10.37,2013-05-10 22:01:00,
2013-05-10 18:03:00,76.5,57.0,30.00,West,270,1.0,2.6,51,0.00,CLR,,0.00,WeatherDisplay:10.37,2013-05-10 22:03:00,
2013-05-10 18:05:00,76.1,57.7,30.00,WSW,248,1.1,2.3,53,0.00,CLR,,0.00,WeatherDisplay:10.37,2013-05-10 22:05:00,
2013-05-10 18:10:00,75.4,57.6,30.00,SW,225,0.8,1.1,54,0.00,CLR,,0.00,WeatherDisplay:10.37,2013-05-10 22:10:00,
2013-05-10 18:15:00,75.0,57.2,30.00,NNE,22,0.6,1.1,54,0.00,CLR,,0.00,WeatherDisplay:10.37,2013-05-10 22:15:00,
2013-05-10 18:20:00,74.5,56.7,30.00,NW,315,0.2,0.0,54,0.00,CLR,,0.00,WeatherDisplay:10.37,2013-05-10 22:20:00,
2013-05-10 18:25:00,73.8,56.6,30.00,East,90,0.1,0.0,55,0.00,CLR,,0.00,WeatherDisplay:10.37,2013-05-10 22:25:00,
2013-05-10 18:30:00,73.0,56.4,30.00,East,90,0.3,0.0,56,0.00,CLR,,0.00,WeatherDisplay:10.37,2013-05-10 22:30:00,
2013-05-10 18:35:00,72.9,56.7,30.00,NE,45,0.3,0.0,57,0.00,CLR,,0.00,WeatherDisplay:10.37,2013-05-10 22:35:00,
2013-05-10 18:40:00,72.3,57.2,30.00,NE,45,0.0,0.0,59,0.00,CLR,,0.00,WeatherDisplay:10.37,2013-05-10 22:40:00,
2013-05-10 18:45:00,72.1,57.0,30.00,NW,315,0.0,0.0,59,0.00,CLR,,0.00,WeatherDisplay:10.37,2013-05-10 22:45:00,
2013-05-10 18:50:00,71.8,58.1,30.00,WNW,292,0.1,0.0,62,0.00,CLR,,0.00,WeatherDisplay:10.37,2013-05-10 22:50:00,
2013-05-10 18:55:00,71.2,57.5,30.00,South,180,0.1,0.0,62,0.00,CLR,,0.00,WeatherDisplay:10.37,2013-05-10 22:55:00,
2013-05-10 19:00:00,70.9,56.8,29.98,SSE,158,0.0,0.0,61,0.00,CLR,,0.00,WeatherDisplay:10.37,2013-05-10 23:00:00,
2013-05-10 19:05:00,70.5,56.4,29.98,NNE,22,0.0,0.0,61,0.00,CLR,,0.00,WeatherDisplay:10.37,2013-05-10 23:05:00,
2013-05-10 19:10:00,70.2,56.1,29.98,ESE,112,0.0,0.0,61,0.00,CLR,,0.00,WeatherDisplay:10.37,2013-05-10 23:10:00,
2013-05-10 19:15:00,70.0,56.4,29.98,ENE,68,0.0,0.0,62,0.00,CLR,,0.00,WeatherDisplay:10.37,2013-05-10 23:15:00,
2013-05-10 19:20:00,69.4,55.9,29.95,West,270,0.1,0.0,62,0.00,CLR,,0.00,WeatherDisplay:10.37,2013-05-10 23:20:00,
2013-05-10 19:25:00,69.3,56.1,29.95,West,270,0.1,0.0,63,0.00,CLR,,0.00,WeatherDisplay:10.37,2013-05-10 23:25:00,
2013-05-10 19:30:00,68.5,55.9,29.95,West,270,0.0,0.0,64,0.00,CLR,,0.00,WeatherDisplay:10.37,2013-05-10 23:30:00,
2013-05-10 19:35:00,68.0,55.4,29.95,West,270,0.0,0.0,64,0.00,CLR,,0.00,WeatherDisplay:10.37,2013-05-10 23:35:00,
2013-05-10 19:40:00,67.8,56.0,29.95,West,270,0.0,0.0,66,0.00,CLR,,0.00,WeatherDisplay:10.37,2013-05-10 23:40:00,
2013-05-10 19:45:00,67.5,56.1,29.95,West,270,0.0,0.0,67,0.00,CLR,,0.00,WeatherDisplay:10.37,2013-05-10 23:45:00,
2013-05-10 19:50:00,66.9,56.0,29.95,West,270,0.0,0.0,68,0.00,CLR,,0.00,WeatherDisplay:10.37,2013-05-10 23:50:00,
2013-05-10 19:55:00,66.6,55.7,29.95,West,270,0.0,0.0,68,0.00,CLR,,0.00,WeatherDisplay:10.37,2013-05-10 23:55:00,
2013-05-10 20:00:00,66.0,55.2,29.95,SSE,158,0.0,0.0,68,0.00,CLR,,0.00,WeatherDisplay:10.37,2013-05-11 00:00:00,
2013-05-10 20:05:00,65.8,55.4,29.95,SSE,158,0.0,0.0,69,0.00,CLR,,0.00,WeatherDisplay:10.37,2013-05-11 00:05:00,
2013-05-10 20:10:00,65.5,55.4,29.95,SSW,202,0.0,0.0,70,0.00,CLR,,0.00,WeatherDisplay:10.37,2013-05-11 00:10:00,
2013-05-10 20:15:00,65.3,55.3,29.95,WSW,248,0.0,0.0,70,0.00,CLR,,0.00,WeatherDisplay:10.37,2013-05-11 00:15:00,
2013-05-10 20:20:00,65.1,55.1,29.95,SW,225,0.0,0.0,70,0.00,CLR,,0.00,WeatherDisplay:10.37,2013-05-11 00:20:00,
2013-05-10 20:25:00,65.1,55.5,29.95,SW,225,0.0,0.0,71,0.00,CLR,,0.00,WeatherDisplay:10.37,2013-05-11 00:25:00,
2013-05-10 20:30:00,64.9,55.7,29.95,SW,225,0.0,0.0,72,0.00,CLR,,0.00,WeatherDisplay:10.37,2013-05-11 00:30:00,
2013-05-10 20:35:00,64.6,55.7,29.95,SW,225,0.0,0.0,73,0.00,CLR,,0.00,WeatherDisplay:10.37,2013-05-11 00:35:00,
2013-05-10 20:40:00,64.4,55.6,29.95,SW,225,0.0,0.0,73,0.00,CLR,,0.00,WeatherDisplay:10.37,2013-05-11 00:40:00,
2013-05-10 20:45:00,64.2,55.4,29.95,SW,225,0.0,0.0,73,0.00,CLR,,0.00,WeatherDisplay:10.37,2013-05-11 00:45:00,
2013-05-10 20:50:00,63.7,54.9,29.95,ESE,112,0.0,1.1,73,0.00,CLR,,0.00,WeatherDisplay:10.37,2013-05-11 00:50:00,
2013-05-10 20:55:00,63.7,55.2,29.95,West,270,0.0,0.0,74,0.00,CLR,,0.00,WeatherDisplay:10.37,2013-05-11 00:55:00,
2013-05-10 21:00:00,63.3,54.9,29.95,NNW,338,0.0,0.0,74,0.00,CLR,,0.00,WeatherDisplay:10.37,2013-05-11 01:00:00,
2013-05-10 21:05:00,63.3,54.9,29.95,NNW,338,0.0,0.0,74,0.00,CLR,,0.00,WeatherDisplay:10.37,2013-05-11 01:05:00,
2013-05-10 21:10:00,63.5,55.1,29.95,NNW,338,0.0,0.0,74,0.00,CLR,,0.00,WeatherDisplay:10.37,2013-05-11 01:10:00,
2013-05-10 21:15:00,63.3,54.9,29.95,NNW,338,0.0,0.0,74,0.00,CLR,,0.00,WeatherDisplay:10.37,2013-05-11 01:15:00,
2013-05-10 21:20:00,63.5,55.4,29.95,NNW,338,0.0,0.0,75,0.00,CLR,,0.00,WeatherDisplay:10.37,2013-05-11 01:20:00,
2013-05-10 21:25:00,63.5,55.4,29.95,NNW,338,0.0,0.0,75,0.00,CLR,,0.00,WeatherDisplay:10.37,2013-05-11 01:25:00,
2013-05-10 21:30:00,63.5,55.1,29.95,WNW,292,0.0,0.0,74,0.00,CLR,,0.00,WeatherDisplay:10.37,2013-05-11 01:30:00,
2013-05-10 21:35:00,63.5,55.1,29.95,West,270,0.3,0.0,74,0.00,CLR,,0.00,WeatherDisplay:10.37,2013-05-11 01:35:00,
2013-05-10 21:40:00,63.5,55.1,29.95,West,270,0.3,0.0,74,0.00,CLR,,0.00,WeatherDisplay:10.37,2013-05-11 01:40:00,
2013-05-10 21:45:00,63.5,55.1,29.95,West,270,0.0,0.0,74,0.00,CLR,,0.00,WeatherDisplay:10.37,2013-05-11 01:45:00,
2013-05-10 21:50:00,63.5,55.1,29.95,West,270,0.0,0.0,74,0.00,CLR,,0.00,WeatherDisplay:10.37,2013-05-11 01:50:00,
2013-05-10 21:55:00,63.5,55.1,29.95,NW,315,0.2,1.1,74,0.00,CLR,,0.00,WeatherDisplay:10.37,2013-05-11 01:55:00,
2013-05-10 22:00:00,63.9,55.0,29.95,NW,315,0.8,2.3,73,0.00,CLR,,0.00,WeatherDisplay:10.37,2013-05-11 02:00:00,
2013-05-10 22:05:00,63.9,55.4,29.95,NW,315,0.7,0.0,74,0.00,CLR,,0.00,WeatherDisplay:10.37,2013-05-11 02:05:00,
2013-05-10 22:10:00,63.7,54.9,29.95,WSW,248,0.6,2.3,73,0.00,CLR,,0.00,WeatherDisplay:10.37,2013-05-11 02:10:00,
2013-05-10 22:15:00,63.9,55.0,29.95,NW,315,0.9,1.1,73,0.00,CLR,,0.00,WeatherDisplay:10.37,2013-05-11 02:15:00,
2013-05-10 22:20:00,63.9,55.0,29.95,NNE,22,0.9,4.6,73,0.00,CLR,,0.00,WeatherDisplay:10.37,2013-05-11 02:20:00,
2013-05-10 22:25:00,63.9,54.7,29.95,NW,315,0.6,2.3,72,0.00,CLR,,0.00,WeatherDisplay:10.37,2013-05-11 02:25:00,
2013-05-10 22:30:00,63.9,54.7,29.95,West,270,0.3,2.3,72,0.00,CLR,,0.00,WeatherDisplay:10.37,2013-05-11 02:30:00,
2013-05-10 22:35:00,63.7,54.9,29.95,West,270,0.2,0.0,73,0.00,CLR,,0.00,WeatherDisplay:10.37,2013-05-11 02:35:00,
2013-05-10 22:40:00,63.9,55.0,29.95,West,270,0.3,2.3,73,0.00,CLR,,0.00,WeatherDisplay:10.37,2013-05-11 02:40:00,
2013-05-10 22:45:00,63.7,54.5,29.95,West,270,0.3,0.0,72,0.00,CLR,,0.00,WeatherDisplay:10.37,2013-05-11 02:45:00,
2013-05-10 22:50:00,63.7,54.9,29.95,South,180,0.3,1.1,73,0.00,CLR,,0.00,WeatherDisplay:10.37,2013-05-11 02:50:00,
2013-05-10 22:55:00,63.5,54.7,29.95,West,270,0.5,2.3,73,0.00,CLR,,0.00,WeatherDisplay:10.37,2013-05-11 02:55:00,
2013-05-10 23:00:00,63.7,54.5,29.95,NW,315,1.1,3.5,72,0.00,CLR,,0.00,WeatherDisplay:10.37,2013-05-11 03:00:00,
2013-05-10 23:05:00,63.9,54.7,29.95,NW,315,1.5,2.3,72,0.00,FEW,,0.00,WeatherDisplay:10.37,2013-05-11 03:05:00,
2013-05-10 23:10:00,63.9,54.7,29.95,SW,225,1.8,2.3,72,0.00,FEW,,0.00,WeatherDisplay:10.37,2013-05-11 03:10:00,
2013-05-10 23:15:00,63.9,54.3,29.95,NNW,338,1.7,1.7,71,0.00,FEW,,0.00,WeatherDisplay:10.37,2013-05-11 03:15:00,
2013-05-10 23:20:00,63.7,54.5,29.94,West,270,1.0,0.0,72,0.00,FEW,,0.00,WeatherDisplay:10.37,2013-05-11 03:20:00,
2013-05-10 23:25:00,63.9,54.7,29.94,NNE,22,0.9,3.5,72,0.00,FEW,,0.00,WeatherDisplay:10.37,2013-05-11 03:25:00,
2013-05-10 23:30:00,63.7,54.5,29.94,West,270,2.0,8.1,72,0.00,FEW,,0.00,WeatherDisplay:10.37,2013-05-11 03:30:00,
2013-05-10 23:35:00,63.9,54.7,29.94,NNW,338,2.2,3.5,72,0.00,FEW,,0.00,WeatherDisplay:10.37,2013-05-11 03:35:00,
2013-05-10 23:40:00,63.5,54.3,29.94,SW,225,1.4,2.3,72,0.00,FEW,,0.00,WeatherDisplay:10.37,2013-05-11 03:40:00,
2013-05-10 23:45:00,63.3,54.1,29.94,West,270,1.1,1.1,72,0.00,FEW,,0.00,WeatherDisplay:10.37,2013-05-11 03:45:00,
2013-05-10 23:50:00,63.1,54.3,29.94,WSW,248,0.5,1.1,73,0.00,FEW,,0.00,WeatherDisplay:10.37,2013-05-11 03:50:00,
2013-05-10 23:55:00,63.0,54.2,29.94,NNW,338,0.8,2.3,73,0.00,FEW,,0.00,WeatherDisplay:10.37,2013-05-11 03:55:00,